Simultaneous Nadir Overpasses (SNOs) Predictions

Prediction of SNOs between NOAA-19 and TERRA Satellite Orbit:

Table of predicted SNOs for the next 14.0 days since TLE Epoch: 3/19/2022
Index Date (NOAA-19) Time (NOAA-19) Lat,Lon (NOAA-19) SZA (NOAA-19 ) Date (TERRA) Time (TERRA) Lat,Lon (TERRA) SZA (TERRA ) Distance(km) Time Diff (sec)
1 03/20/2022 23:12:50 80.69,-132.54 82.11 03/20/2022 23:13:49 80.71,-132.56 82.14 2.16 59
2 03/21/2022 00:03:51 -80.69, 34.69 97.92 03/21/2022 00:03:17 -80.67, 34.69 97.94 1.83 34
3 03/23/2022 05:36:51 80.70, 131.32 81.22 03/23/2022 05:36:56 80.68, 131.33 81.21 1.85 5
4 03/25/2022 11:09:53 -80.69,-131.71 99.62 03/25/2022 11:10:35 -80.71,-131.81 99.61 2.44 42
5 03/25/2022 12:00:51 80.69, 35.51 80.36 03/25/2022 12:00:02 80.68, 35.50 80.33 1.84 49
6 03/27/2022 17:33:54 -80.69, 132.30 100.49 03/27/2022 17:33:41 -80.70, 132.32 100.49 0.81 13
7 03/29/2022 23:06:52 80.70,-131.07 78.66 03/29/2022 23:07:20 80.69,-131.24 78.64 3.38 28
8 03/29/2022 23:57:55 -80.70, 36.26 101.35 03/29/2022 23:56:47 -80.69, 36.41 101.38 2.79 68
9 04/01/2022 04:39:56 -80.70, -34.33 102.19 04/01/2022 04:40:59 -80.71, -34.48 102.18 2.78 63



Historial Predications of SNOs between NOAA-19 and TERRA
